When you browse on this site, cookies collect data to enhance your experience and personalize the content and advertising you see.
Visit our Privacy Policy to learn more. By continuing to use the site, you agree to this use of cookies and data.
  • In Germany
  • List of Countries
  • For 7 days
  • Water Temperature
  • Weather Map
  • Weather Widgets
  • user-avatar
    Login

    Hourly Weather Mannheim

    Today, 19 August, Monday

    Time Temperature Precipitation Wind Pressure Humidity
    00:00 +20°C° 0.1 mm 2 mps 751 mmHg 85%
    01:00 +20°C° 0 mm 3 mps 752 mmHg 88%
    02:00 +19°C° 0.1 mm 2 mps 752 mmHg 87%
    03:00 +19°C° 0.1 mm 2 mps 752 mmHg 86%
    04:00 +19°C° 0.1 mm 2 mps 752 mmHg 85%
    05:00 +19°C° 0.1 mm 2 mps 753 mmHg 84%
    06:00 +19°C° 0.1 mm 2 mps 753 mmHg 82%
    07:00 +20°C° 0 mm 1 mps 753 mmHg 78%
    08:00 +20°C° 0.1 mm 2 mps 753 mmHg 71%
    09:00 +21°C° 0.1 mm 2 mps 754 mmHg 65%
    10:00 +24°C° 0.1 mm 3 mps 754 mmHg 58%
    11:00 +24°C° 0 mm 3 mps 754 mmHg 53%
    12:00 +25°C° 0 mm 3 mps 754 mmHg 47%
    13:00 +26°C° 0 mm 3 mps 754 mmHg 42%
    14:00 +26°C° 0 mm 3 mps 754 mmHg 41%
    15:00 +26°C° 0 mm 3 mps 754 mmHg 41%
    16:00 +26°C° 0 mm 3 mps 754 mmHg 40%
    17:00 +25°C° 0 mm 3 mps 754 mmHg 45%
    18:00 +24°C° 0 mm 2 mps 755 mmHg 49%
    19:00 +23°C° 0 mm 2 mps 755 mmHg 54%
    20:00 +22°C° 0 mm 1 mps 755 mmHg 56%
    21:00 +21°C° 0 mm 1 mps 756 mmHg 58%
    22:00 +20°C° 0 mm 1 mps 756 mmHg 60%
    23:00 +20°C° 0 mm 1 mps 756 mmHg 61%

    Tomorrow, 20 August, Tuesday

    Time Temperature Precipitation Wind Pressure Humidity
    00:00 +20°C° 0 mm 1 mps 756 mmHg 62%
    01:00 +19°C° 0 mm 1 mps 756 mmHg 63%
    02:00 +19°C° 0 mm 1 mps 756 mmHg 64%
    03:00 +19°C° 0 mm 1 mps 756 mmHg 64%
    04:00 +19°C° 0 mm 1 mps 756 mmHg 64%
    05:00 +19°C° 0 mm 1 mps 756 mmHg 64%
    06:00 +19°C° 0 mm 1 mps 757 mmHg 64%
    07:00 +20°C° 0 mm 1 mps 757 mmHg 63%
    08:00 +20°C° 0 mm 1 mps 757 mmHg 61%
    09:00 +21°C° 0 mm 1 mps 757 mmHg 58%
    10:00 +21°C° 0 mm 2 mps 757 mmHg 56%
    11:00 +22°C° 0.1 mm 1 mps 758 mmHg 57%
    12:00 +22°C° 0.1 mm 1 mps 758 mmHg 58%
    13:00 +22°C° 0.1 mm 1 mps 758 mmHg 58%
    14:00 +22°C° 0.2 mm 1 mps 758 mmHg 59%
    15:00 +20°C° 0.2 mm 2 mps 759 mmHg 60%
    16:00 +20°C° 0.2 mm 2 mps 759 mmHg 60%
    17:00 +19°C° 0 mm 2 mps 759 mmHg 63%
    18:00 +19°C° 0 mm 2 mps 759 mmHg 66%
    19:00 +19°C° 0 mm 1 mps 759 mmHg 68%
    20:00 +18°C° 0 mm 2 mps 760 mmHg 70%
    21:00 +17°C° 0 mm 2 mps 760 mmHg 71%
    22:00 +17°C° 0 mm 2 mps 761 mmHg 73%
    23:00 +17°C° 0 mm 2 mps 761 mmHg 74%

    Day after tomorrow, 21 August, Wednesday

    Time Temperature Precipitation Wind Pressure Humidity
    00:00 +16°C° 0 mm 2 mps 761 mmHg 76%
    01:00 +16°C° 0 mm 2 mps 761 mmHg 78%
    02:00 +16°C° 0 mm 2 mps 761 mmHg 80%
    03:00 +15°C° 0 mm 1 mps 761 mmHg 82%
    04:00 +14°C° 0 mm 1 mps 762 mmHg 85%
    05:00 +15°C° 0 mm 1 mps 762 mmHg 83%
    06:00 +15°C° 0 mm 1 mps 762 mmHg 81%
    07:00 +15°C° 0 mm 0 mps 762 mmHg 79%
    08:00 +17°C° 0 mm 0 mps 762 mmHg 72%
    09:00 +19°C° 0 mm 0 mps 762 mmHg 64%
    10:00 +21°C° 0 mm 0 mps 762 mmHg 56%
    11:00 +24°C° 0 mm 1 mps 761 mmHg 51%
    12:00 +25°C° 0 mm 1 mps 761 mmHg 47%
    13:00 +26°C° 0 mm 1 mps 760 mmHg 42%
    14:00 +25°C° 0 mm 2 mps 760 mmHg 42%
    15:00 +25°C° 0 mm 2 mps 760 mmHg 43%
    16:00 +25°C° 0 mm 2 mps 760 mmHg 43%
    17:00 +24°C° 0 mm 2 mps 759 mmHg 48%
    18:00 +23°C° 0 mm 2 mps 759 mmHg 53%
    19:00 +21°C° 0 mm 2 mps 759 mmHg 58%
    20:00 +20°C° 0 mm 2 mps 759 mmHg 60%
    21:00 +20°C° 0 mm 1 mps 760 mmHg 61%
    22:00 +19°C° 0 mm 1 mps 760 mmHg 63%
    23:00 +19°C° 0 mm 1 mps 760 mmHg 65%

    22 August, Thursday

    Time Temperature Precipitation Wind Pressure Humidity
    00:00 +18°C° 0 mm 1 mps 760 mmHg 66%
    01:00 +18°C° 0 mm 1 mps 760 mmHg 68%
    02:00 +16°C° 0 mm 1 mps 759 mmHg 70%
    03:00 +16°C° 0 mm 1 mps 759 mmHg 73%
    04:00 +16°C° 0 mm 1 mps 759 mmHg 75%
    05:00 +16°C° 0 mm 1 mps 760 mmHg 75%
    06:00 +18°C° 0 mm 1 mps 760 mmHg 75%
    07:00 +18°C° 0 mm 1 mps 760 mmHg 75%
    08:00 +20°C° 0 mm 1 mps 760 mmHg 69%
    09:00 +21°C° 0 mm 2 mps 760 mmHg 62%
    10:00 +24°C° 0 mm 2 mps 760 mmHg 56%
    11:00 +25°C° 0 mm 2 mps 760 mmHg 52%
    12:00 +26°C° 0 mm 2 mps 759 mmHg 48%
    13:00 +27°C° 0 mm 2 mps 759 mmHg 44%
    14:00 +27°C° 0 mm 2 mps 759 mmHg 44%
    15:00 +27°C° 0 mm 2 mps 759 mmHg 44%
    16:00 +27°C° 0 mm 2 mps 758 mmHg 44%
    17:00 +26°C° 0 mm 2 mps 758 mmHg 48%
    18:00 +25°C° 0 mm 2 mps 758 mmHg 53%
    19:00 +23°C° 0 mm 2 mps 758 mmHg 58%
    20:00 +21°C° 0 mm 2 mps 759 mmHg 59%
    21:00 +21°C° 0 mm 1 mps 759 mmHg 60%
    22:00 +20°C° 0 mm 1 mps 759 mmHg 61%
    23:00 +20°C° 0 mm 1 mps 759 mmHg 63%

    23 August, Friday

    Time Temperature Precipitation Wind Pressure Humidity
    00:00 +19°C° 0 mm 1 mps 759 mmHg 64%
    01:00 +19°C° 0 mm 1 mps 759 mmHg 65%
    02:00 +19°C° 0 mm 1 mps 759 mmHg 67%
    03:00 +18°C° 0 mm 1 mps 759 mmHg 69%
    04:00 +18°C° 0 mm 1 mps 758 mmHg 71%
    05:00 +18°C° 0 mm 1 mps 758 mmHg 71%
    06:00 +18°C° 0 mm 1 mps 758 mmHg 71%
    07:00 +18°C° 0 mm 2 mps 759 mmHg 71%
    08:00 +20°C° 0 mm 2 mps 759 mmHg 66%
    09:00 +21°C° 0 mm 2 mps 758 mmHg 61%
    10:00 +24°C° 0 mm 2 mps 758 mmHg 55%
    11:00 +26°C° 0 mm 2 mps 758 mmHg 51%
    12:00 +27°C° 0 mm 3 mps 758 mmHg 47%
    13:00 +28°C° 0 mm 3 mps 757 mmHg 43%
    14:00 +28°C° 0 mm 3 mps 757 mmHg 42%
    15:00 +28°C° 0 mm 3 mps 756 mmHg 41%
    16:00 +28°C° 0 mm 3 mps 756 mmHg 41%
    17:00 +27°C° 0 mm 3 mps 756 mmHg 45%
    18:00 +25°C° 0 mm 2 mps 756 mmHg 50%
    19:00 +24°C° 0 mm 2 mps 756 mmHg 55%
    20:00 +23°C° 0 mm 1 mps 756 mmHg 56%
    21:00 +22°C° 0 mm 1 mps 756 mmHg 58%
    22:00 +21°C° 0 mm 1 mps 756 mmHg 60%
    23:00 +21°C° 0 mm 1 mps 756 mmHg 62%

    24 August, Saturday

    Time Temperature Precipitation Wind Pressure Humidity
    00:00 +20°C° 0 mm 1 mps 756 mmHg 64%
    01:00 +20°C° 0 mm 1 mps 756 mmHg 67%
    02:00 +19°C° 0 mm 1 mps 755 mmHg 69%
    03:00 +19°C° 0 mm 1 mps 755 mmHg 72%
    04:00 +18°C° 0 mm 1 mps 755 mmHg 74%
    05:00 +19°C° 0 mm 1 mps 755 mmHg 74%
    06:00 +19°C° 0 mm 1 mps 755 mmHg 73%
    07:00 +20°C° 0 mm 1 mps 754 mmHg 73%
    08:00 +21°C° 0 mm 1 mps 754 mmHg 67%
    09:00 +23°C° 0 mm 1 mps 754 mmHg 61%
    10:00 +25°C° 0 mm 1 mps 754 mmHg 55%
    11:00 +27°C° 0 mm 1 mps 754 mmHg 51%
    12:00 +28°C° 0 mm 1 mps 754 mmHg 47%
    13:00 +30°C° 0 mm 1 mps 753 mmHg 43%
    14:00 +30°C° 0 mm 1 mps 753 mmHg 43%
    15:00 +30°C° 0 mm 1 mps 753 mmHg 43%
    16:00 +30°C° 0 mm 1 mps 752 mmHg 42%
    17:00 +29°C° 0 mm 1 mps 752 mmHg 47%
    18:00 +27°C° 0 mm 1 mps 752 mmHg 52%
    19:00 +26°C° 0 mm 1 mps 752 mmHg 57%
    20:00 +25°C° 0 mm 1 mps 752 mmHg 60%
    21:00 +22°C° 0 mm 0 mps 752 mmHg 63%
    22:00 +21°C° 0 mm 0 mps 753 mmHg 66%
    23:00 +21°C° 0 mm 0 mps 753 mmHg 68%
    Show more